UAL2887 KIAH-MMSD

Flight info

Callsign UAL2887
Flight time 2h 24m
Altitude 38000
Route RITAA7 CRP DCT DEVOE DCT SLW UT71 TENAY TENAY1A
Aircraft A320/M-SDE3FGHIRWY/LB1

Departure

Time 2026-04-22 18:44
Airport George Bush Intercontinental Airport (KIAH)

Arrival

Time 2026-04-22 21:08
Airport Los Cabos International Airport (MMSD)
Time Latitude Longitude Altitude Speed Heading
2026-04-22 18:25 29.98474 -95.34737 99 ft 0 kts 41°
2026-04-22 18:31 29.98474 -95.34738 99 ft 0 kts 41°
2026-04-22 18:32 29.98473 -95.34738 99 ft 0 kts 41°
2026-04-22 18:33 29.98465 -95.34746 100 ft 3 kts 41°
2026-04-22 18:34 29.98452 -95.34760 98 ft 3 kts 41°
2026-04-22 18:34 29.98445 -95.34766 100 ft 2 kts 57°
2026-04-22 18:34 29.98441 -95.34785 98 ft 2 kts 130°
2026-04-22 18:34 29.98454 -95.34794 98 ft 0 kts 174°
2026-04-22 18:36 29.98453 -95.34794 98 ft 0 kts 174°
2026-04-22 18:39 29.98452 -95.34794 99 ft 1 kts 173°
2026-04-22 18:39 29.98414 -95.34796 99 ft 9 kts 185°
2026-04-22 18:39 29.98384 -95.34869 99 ft 14 kts 269°
2026-04-22 18:40 29.98383 -95.35006 99 ft 20 kts 271°
2026-04-22 18:40 29.98385 -95.35175 99 ft 16 kts 269°
2026-04-22 18:40 29.98382 -95.35307 100 ft 16 kts 296°
2026-04-22 18:40 29.98474 -95.35381 100 ft 17 kts 332°
2026-04-22 18:41 29.98586 -95.35447 100 ft 19 kts 334°
2026-04-22 18:41 29.98707 -95.35520 101 ft 20 kts 332°
2026-04-22 18:41 29.98803 -95.35580 100 ft 14 kts 332°
2026-04-22 18:41 29.98832 -95.35670 101 ft 6 kts 248°
2026-04-22 18:42 29.98832 -95.35672 101 ft 0 kts 247°
2026-04-22 18:42 29.98830 -95.35674 101 ft 3 kts 245°
2026-04-22 18:43 29.98790 -95.35759 104 ft 12 kts 233°
2026-04-22 18:43 29.98739 -95.35756 104 ft 0 kts 154°
2026-04-22 18:43 29.98639 -95.35696 103 ft 48 kts 152°
2026-04-22 18:43 29.98148 -95.35394 101 ft 108 kts 152°
2026-04-22 18:44 29.97340 -95.34899 100 ft 153 kts 152°
2026-04-22 18:44 29.96360 -95.34306 459 ft 160 kts 150°
2026-04-22 18:44 29.95361 -95.33751 978 ft 161 kts 165°
2026-04-22 18:44 29.94249 -95.33904 1495 ft 167 kts 204°
2026-04-22 18:45 29.93364 -95.34816 1937 ft 183 kts 237°
2026-04-22 18:45 29.93077 -95.36331 2145 ft 211 kts 275°
2026-04-22 18:45 29.93376 -95.38095 2372 ft 237 kts 280°
2026-04-22 18:45 29.93753 -95.40043 2695 ft 261 kts 281°
2026-04-22 18:46 29.94162 -95.42124 3337 ft 270 kts 281°
2026-04-22 18:46 29.94570 -95.44228 4165 ft 273 kts 281°
2026-04-22 18:46 29.94982 -95.46392 4768 ft 277 kts 281°
2026-04-22 18:46 29.95395 -95.48579 4951 ft 275 kts 281°
2026-04-22 18:47 29.95792 -95.50735 5006 ft 274 kts 280°
2026-04-22 18:47 29.96135 -95.52873 5260 ft 277 kts 278°
2026-04-22 18:47 29.96458 -95.55061 6182 ft 275 kts 278°
2026-04-22 18:47 29.96773 -95.57235 7031 ft 275 kts 278°
2026-04-22 18:48 29.97092 -95.59422 7835 ft 278 kts 279°
2026-04-22 18:48 29.97417 -95.61613 8674 ft 277 kts 279°
2026-04-22 18:48 29.97621 -95.63832 9435 ft 280 kts 269°
2026-04-22 18:48 29.97386 -95.66079 10137 ft 285 kts 260°
2026-04-22 18:49 29.97025 -95.68416 10338 ft 307 kts 261°
2026-04-22 18:49 29.96639 -95.70935 10540 ft 329 kts 261°
2026-04-22 18:49 29.96236 -95.73567 11064 ft 337 kts 261°
2026-04-22 18:49 29.95826 -95.76251 11665 ft 341 kts 261°
2026-04-22 18:50 29.95413 -95.78955 12293 ft 344 kts 261°
2026-04-22 18:50 29.94998 -95.81682 12953 ft 347 kts 261°
2026-04-22 18:50 29.94580 -95.84436 13590 ft 350 kts 261°
2026-04-22 18:50 29.94158 -95.87211 14183 ft 353 kts 261°
2026-04-22 18:51 29.93731 -95.90014 14754 ft 356 kts 261°
2026-04-22 18:51 29.93295 -95.92833 15293 ft 359 kts 259°
2026-04-22 18:51 29.92434 -95.95543 15797 ft 365 kts 242°
2026-04-22 18:51 29.90840 -95.97795 16322 ft 372 kts 223°
2026-04-22 18:52 29.88703 -95.99533 16850 ft 378 kts 216°
2026-04-22 18:52 29.86495 -96.01192 17393 ft 381 kts 215°
2026-04-22 18:52 29.84258 -96.02852 17931 ft 384 kts 215°
2026-04-22 18:52 29.82000 -96.04521 18464 ft 387 kts 215°
2026-04-22 18:53 29.79721 -96.06206 18954 ft 391 kts 215°
2026-04-22 18:53 29.77429 -96.07907 19472 ft 393 kts 216°
2026-04-22 18:53 29.75125 -96.09622 19956 ft 396 kts 216°
2026-04-22 18:53 29.72800 -96.11354 20468 ft 399 kts 216°
2026-04-22 18:54 29.70463 -96.13098 20979 ft 402 kts 216°
2026-04-22 18:54 29.68109 -96.14852 21478 ft 404 kts 216°
2026-04-22 18:54 29.66539 -96.16021 21788 ft 407 kts 216°
2026-04-22 18:54 29.63348 -96.18397 22404 ft 410 kts 216°
2026-04-22 18:55 29.61763 -96.19579 22713 ft 412 kts 216°
2026-04-22 18:55 29.59353 -96.21373 23155 ft 414 kts 216°
2026-04-22 18:55 29.56127 -96.23769 23723 ft 418 kts 216°
2026-04-22 18:55 29.53677 -96.25586 24081 ft 420 kts 216°
2026-04-22 18:56 29.52018 -96.26816 24279 ft 421 kts 216°
2026-04-22 18:56 29.49547 -96.28647 24638 ft 423 kts 216°
2026-04-22 18:56 29.47066 -96.30483 24988 ft 425 kts 216°
2026-04-22 18:56 29.44579 -96.32326 25344 ft 427 kts 216°
2026-04-22 18:57 29.42072 -96.34185 25680 ft 429 kts 216°
2026-04-22 18:57 29.39558 -96.36049 26008 ft 431 kts 216°
2026-04-22 18:57 29.37031 -96.37920 26324 ft 434 kts 216°
2026-04-22 18:57 29.34486 -96.39798 26622 ft 436 kts 216°
2026-04-22 18:58 29.31929 -96.41684 26954 ft 438 kts 216°
2026-04-22 18:58 29.29358 -96.43583 27278 ft 440 kts 216°
2026-04-22 18:58 29.26776 -96.45487 27638 ft 443 kts 217°
2026-04-22 18:58 29.24215 -96.47374 27966 ft 445 kts 217°
2026-04-22 18:59 29.21602 -96.49300 28278 ft 447 kts 217°
2026-04-22 18:59 29.18978 -96.51233 28603 ft 449 kts 217°
2026-04-22 18:59 29.16343 -96.53172 28900 ft 451 kts 217°
2026-04-22 18:59 29.13697 -96.55116 29173 ft 454 kts 217°
2026-04-22 19:00 29.11036 -96.57072 29461 ft 456 kts 217°
2026-04-22 19:00 29.08365 -96.59036 29755 ft 458 kts 217°
2026-04-22 19:00 29.05682 -96.61009 30009 ft 460 kts 217°
2026-04-22 19:00 29.02977 -96.62994 30249 ft 462 kts 217°
2026-04-22 19:01 29.00262 -96.64982 30473 ft 464 kts 217°
2026-04-22 19:01 28.97538 -96.66972 30688 ft 466 kts 217°
2026-04-22 19:01 28.94804 -96.68970 30932 ft 466 kts 217°
2026-04-22 19:01 28.92071 -96.70967 31241 ft 465 kts 217°
2026-04-22 19:02 28.89351 -96.72956 31546 ft 464 kts 217°
2026-04-22 19:02 28.86632 -96.74943 31848 ft 464 kts 217°
2026-04-22 19:02 28.83915 -96.76925 32163 ft 463 kts 217°
2026-04-22 19:02 28.81205 -96.78902 32482 ft 462 kts 218°
2026-04-22 19:03 28.78498 -96.80879 32765 ft 462 kts 218°
2026-04-22 19:03 28.75786 -96.82860 33096 ft 461 kts 218°
2026-04-22 19:03 28.73120 -96.84804 33390 ft 460 kts 218°
2026-04-22 19:03 28.70389 -96.86794 33748 ft 459 kts 218°
2026-04-22 19:04 28.67734 -96.88722 34101 ft 458 kts 218°
2026-04-22 19:04 28.65042 -96.90673 34387 ft 457 kts 218°
2026-04-22 19:04 28.62361 -96.92615 34667 ft 456 kts 218°
2026-04-22 19:04 28.59685 -96.94555 34951 ft 455 kts 218°
2026-04-22 19:05 28.57017 -96.96490 35224 ft 454 kts 218°
2026-04-22 19:05 28.54353 -96.98425 35506 ft 453 kts 218°
2026-04-22 19:05 28.51700 -97.00354 35760 ft 452 kts 218°
2026-04-22 19:05 28.49054 -97.02278 36022 ft 451 kts 218°
2026-04-22 19:06 28.46411 -97.04197 36272 ft 450 kts 218°
2026-04-22 19:06 28.43770 -97.06109 36539 ft 448 kts 217°
2026-04-22 19:06 28.41143 -97.08006 36784 ft 447 kts 217°
2026-04-22 19:07 28.35893 -97.11781 37258 ft 446 kts 217°
2026-04-22 19:07 28.33278 -97.13666 37475 ft 445 kts 217°
2026-04-22 19:07 28.30673 -97.15545 37677 ft 444 kts 217°
2026-04-22 19:07 28.28062 -97.17431 37876 ft 443 kts 217°
2026-04-22 19:08 28.25462 -97.19309 38032 ft 444 kts 217°
2026-04-22 19:08 28.20221 -97.23094 38063 ft 448 kts 217°
2026-04-22 19:09 28.14946 -97.26886 38063 ft 448 kts 217°
2026-04-22 19:09 28.09718 -97.30644 38056 ft 448 kts 217°
2026-04-22 19:10 28.04451 -97.34416 38054 ft 448 kts 217°
2026-04-22 19:10 27.99180 -97.38183 38057 ft 448 kts 217°
2026-04-22 19:11 27.93909 -97.41951 38063 ft 448 kts 217°
2026-04-22 19:11 27.89039 -97.46227 38066 ft 439 kts 232°
2026-04-22 19:12 27.85032 -97.51413 38044 ft 438 kts 233°
2026-04-22 19:12 27.81016 -97.56595 38053 ft 438 kts 233°
2026-04-22 19:13 27.77014 -97.61747 38060 ft 439 kts 233°
2026-04-22 19:13 27.72987 -97.66943 38066 ft 440 kts 233°
2026-04-22 19:14 27.68955 -97.72134 38067 ft 440 kts 233°
2026-04-22 19:14 27.64915 -97.77328 38069 ft 440 kts 233°
2026-04-22 19:15 27.61557 -97.81648 38060 ft 441 kts 233°
2026-04-22 19:15 27.56826 -97.87720 38058 ft 441 kts 233°
2026-04-22 19:16 27.52783 -97.92893 38070 ft 441 kts 233°
2026-04-22 19:16 27.48709 -97.98096 38044 ft 441 kts 233°
2026-04-22 19:17 27.44657 -98.03269 38054 ft 442 kts 233°
2026-04-22 19:17 27.40596 -98.08453 38044 ft 442 kts 233°
2026-04-22 19:18 27.36514 -98.13660 38037 ft 441 kts 233°
2026-04-22 19:18 27.32476 -98.18808 38031 ft 441 kts 233°
2026-04-22 19:19 27.28410 -98.23974 38032 ft 441 kts 233°
2026-04-22 19:19 27.24338 -98.29143 38034 ft 441 kts 233°
2026-04-22 19:20 27.20269 -98.34306 38023 ft 442 kts 233°
2026-04-22 19:20 27.16217 -98.39452 38017 ft 441 kts 234°
2026-04-22 19:21 27.12144 -98.44608 38039 ft 441 kts 234°
2026-04-22 19:21 27.08067 -98.49753 38030 ft 441 kts 234°
2026-04-22 19:22 27.03992 -98.54892 38022 ft 440 kts 234°
2026-04-22 19:22 26.99922 -98.60023 38033 ft 441 kts 234°
2026-04-22 19:23 26.95847 -98.65153 38012 ft 440 kts 234°
2026-04-22 19:23 26.91779 -98.70280 38029 ft 440 kts 234°
2026-04-22 19:24 26.87711 -98.75403 38007 ft 439 kts 234°
2026-04-22 19:24 26.83650 -98.80497 38037 ft 438 kts 234°
2026-04-22 19:25 26.79583 -98.85589 38034 ft 438 kts 234°
2026-04-22 19:25 26.75532 -98.90660 38034 ft 437 kts 234°
2026-04-22 19:26 26.71506 -98.95698 38034 ft 437 kts 234°
2026-04-22 19:26 26.67448 -99.00763 38038 ft 437 kts 234°
2026-04-22 19:27 26.63391 -99.05830 38038 ft 437 kts 234°
2026-04-22 19:27 26.59333 -99.10886 38037 ft 437 kts 234°
2026-04-22 19:28 26.55276 -99.15933 38026 ft 435 kts 236°
2026-04-22 19:28 26.51956 -99.21434 38033 ft 426 kts 244°
2026-04-22 19:29 26.48829 -99.27058 38032 ft 426 kts 244°
2026-04-22 19:29 26.45687 -99.32672 38034 ft 426 kts 244°
2026-04-22 19:30 26.43078 -99.37335 38034 ft 426 kts 244°
2026-04-22 19:30 26.39416 -99.43895 38037 ft 426 kts 244°
2026-04-22 19:31 26.36274 -99.49509 38030 ft 427 kts 244°
2026-04-22 19:31 26.33131 -99.55119 38038 ft 427 kts 244°
2026-04-22 19:32 26.29977 -99.60729 38045 ft 426 kts 244°
2026-04-22 19:32 26.26829 -99.66326 38045 ft 426 kts 244°
2026-04-22 19:33 26.23681 -99.71920 38042 ft 426 kts 244°
2026-04-22 19:33 26.20553 -99.77473 38027 ft 426 kts 244°
2026-04-22 19:34 26.17397 -99.83066 38035 ft 426 kts 244°
2026-04-22 19:34 26.14246 -99.88651 38036 ft 426 kts 244°
2026-04-22 19:35 26.11099 -99.94236 38045 ft 426 kts 245°
2026-04-22 19:35 26.08478 -99.98857 38041 ft 424 kts 244°
2026-04-22 19:36 26.04782 -100.05354 38043 ft 425 kts 244°
2026-04-22 19:36 26.01626 -100.10913 38046 ft 425 kts 244°
2026-04-22 19:37 25.98474 -100.16470 38098 ft 425 kts 244°
2026-04-22 19:37 25.95336 -100.21994 38095 ft 425 kts 244°
2026-04-22 19:38 25.92173 -100.27538 38102 ft 425 kts 244°
2026-04-22 19:38 25.89006 -100.33083 38038 ft 425 kts 244°
2026-04-22 19:39 25.85835 -100.38636 38031 ft 425 kts 245°
2026-04-22 19:39 25.82674 -100.44185 38044 ft 425 kts 245°
2026-04-22 19:40 25.79503 -100.49728 38057 ft 426 kts 244°
2026-04-22 19:40 25.76856 -100.54339 38059 ft 426 kts 244°
2026-04-22 19:41 25.73156 -100.60784 38058 ft 426 kts 245°
2026-04-22 19:41 25.69968 -100.66348 38098 ft 428 kts 245°
2026-04-22 19:42 25.67307 -100.70969 38130 ft 428 kts 245°
2026-04-22 19:42 25.64085 -100.76567 38156 ft 429 kts 245°
2026-04-22 19:43 25.59283 -100.84880 38213 ft 429 kts 244°
2026-04-22 19:43 25.56060 -100.90457 38214 ft 429 kts 245°
2026-04-22 19:44 25.53376 -100.96256 38182 ft 420 kts 253°
2026-04-22 19:44 25.51138 -101.02224 38199 ft 420 kts 253°
2026-04-22 19:45 25.48886 -101.08200 38175 ft 420 kts 253°
2026-04-22 19:45 25.46631 -101.14169 38139 ft 420 kts 253°
2026-04-22 19:46 25.44369 -101.20131 38122 ft 420 kts 253°
2026-04-22 19:46 25.42124 -101.26050 38073 ft 420 kts 253°
2026-04-22 19:47 25.39863 -101.32005 38053 ft 420 kts 254°
2026-04-22 19:47 25.37595 -101.37975 38059 ft 420 kts 254°
2026-04-22 19:48 25.35327 -101.43936 38062 ft 421 kts 254°
2026-04-22 19:48 25.33054 -101.49904 38046 ft 421 kts 254°
2026-04-22 19:49 25.30783 -101.55868 38055 ft 421 kts 254°
2026-04-22 19:49 25.28501 -101.61830 38037 ft 421 kts 254°
2026-04-22 19:50 25.26230 -101.67757 38037 ft 421 kts 254°
2026-04-22 19:50 25.23954 -101.73711 38044 ft 421 kts 254°
2026-04-22 19:51 25.21674 -101.79656 38027 ft 420 kts 254°
2026-04-22 19:51 25.19389 -101.85597 38027 ft 420 kts 254°
2026-04-22 19:52 25.17100 -101.91532 38010 ft 420 kts 254°
2026-04-22 19:52 25.14804 -101.97468 37986 ft 420 kts 254°
2026-04-22 19:53 25.12514 -102.03403 37993 ft 421 kts 254°
2026-04-22 19:53 25.10228 -102.09313 37979 ft 421 kts 254°
2026-04-22 19:54 25.07924 -102.15255 37983 ft 415 kts 254°
2026-04-22 19:54 25.05663 -102.21096 37976 ft 413 kts 254°
2026-04-22 19:55 25.03420 -102.26886 37968 ft 413 kts 254°
2026-04-22 19:55 25.01159 -102.32709 37968 ft 413 kts 254°
2026-04-22 19:56 24.98891 -102.38532 37969 ft 414 kts 254°
2026-04-22 19:56 24.96617 -102.44363 37981 ft 414 kts 254°
2026-04-22 19:57 24.94340 -102.50197 37979 ft 414 kts 254°
2026-04-22 19:57 24.92060 -102.56027 37981 ft 414 kts 254°
2026-04-22 19:58 24.89780 -102.61854 37977 ft 414 kts 254°
2026-04-22 19:58 24.87503 -102.67682 37970 ft 414 kts 254°
2026-04-22 20:00 24.79499 -102.88039 37960 ft 414 kts 254°
2026-04-22 20:01 24.77224 -102.93814 37957 ft 414 kts 254°
2026-04-22 20:01 24.74926 -102.99622 37938 ft 414 kts 253°
2026-04-22 20:02 24.72623 -103.05430 37944 ft 415 kts 253°
2026-04-22 20:02 24.70312 -103.11252 37940 ft 415 kts 253°
2026-04-22 20:03 24.68004 -103.17069 37935 ft 415 kts 253°
2026-04-22 20:03 24.65697 -103.22896 37943 ft 416 kts 253°
2026-04-22 20:04 24.63391 -103.28722 37948 ft 416 kts 253°
2026-04-22 20:04 24.61088 -103.34510 37949 ft 416 kts 253°
2026-04-22 20:05 24.58763 -103.40339 37956 ft 416 kts 253°
2026-04-22 20:05 24.56441 -103.46159 37956 ft 416 kts 253°
2026-04-22 20:06 24.54119 -103.51982 37946 ft 416 kts 253°
2026-04-22 20:06 24.51787 -103.57798 37961 ft 416 kts 253°
2026-04-22 20:07 24.49448 -103.63622 37962 ft 416 kts 253°
2026-04-22 20:07 24.47115 -103.69445 37965 ft 417 kts 253°
2026-04-22 20:08 24.44789 -103.75267 37967 ft 416 kts 253°
2026-04-22 20:08 24.42450 -103.81085 37963 ft 417 kts 253°
2026-04-22 20:09 24.40100 -103.86901 37958 ft 417 kts 253°
2026-04-22 20:09 24.37754 -103.92713 37960 ft 417 kts 253°
2026-04-22 20:10 24.35414 -103.98525 37938 ft 417 kts 253°
2026-04-22 20:10 24.33062 -104.04343 37925 ft 418 kts 252°
2026-04-22 20:11 24.30697 -104.10176 37913 ft 419 kts 252°
2026-04-22 20:11 24.28343 -104.15973 37919 ft 419 kts 252°
2026-04-22 20:12 24.25971 -104.21808 37960 ft 419 kts 252°
2026-04-22 20:12 24.23982 -104.26700 38028 ft 420 kts 252°
2026-04-22 20:13 24.21221 -104.33484 38119 ft 419 kts 252°
2026-04-22 20:13 24.18844 -104.39317 38192 ft 419 kts 252°
2026-04-22 20:14 24.16461 -104.45149 38256 ft 420 kts 252°
2026-04-22 20:14 24.14067 -104.50993 38258 ft 420 kts 252°
2026-04-22 20:15 24.11894 -104.56899 38259 ft 417 kts 256°
2026-04-22 20:15 24.10000 -104.62882 38251 ft 416 kts 257°
2026-04-22 20:16 24.08110 -104.68866 38186 ft 416 kts 257°
2026-04-22 20:16 24.06143 -104.74831 38121 ft 417 kts 256°
2026-04-22 20:17 24.04142 -104.80784 38056 ft 417 kts 256°
2026-04-22 20:17 24.02151 -104.86744 38003 ft 417 kts 256°
2026-04-22 20:18 24.00181 -104.92679 37971 ft 417 kts 256°
2026-04-22 20:18 23.98195 -104.98634 38006 ft 417 kts 256°
2026-04-22 20:19 23.96205 -105.04586 38007 ft 416 kts 256°
2026-04-22 20:19 23.94211 -105.10538 38051 ft 416 kts 256°
2026-04-22 20:20 23.92218 -105.16473 38048 ft 416 kts 256°
2026-04-22 20:20 23.90229 -105.22411 38071 ft 416 kts 256°
2026-04-22 20:21 23.88250 -105.28297 38071 ft 415 kts 256°
2026-04-22 20:21 23.86260 -105.34213 38074 ft 414 kts 256°
2026-04-22 20:22 23.84268 -105.40117 38104 ft 414 kts 256°
2026-04-22 20:22 23.82278 -105.46018 38093 ft 414 kts 256°
2026-04-22 20:23 23.80279 -105.51921 38101 ft 414 kts 255°
2026-04-22 20:23 23.78279 -105.57830 38095 ft 414 kts 255°
2026-04-22 20:24 23.76283 -105.63728 38101 ft 414 kts 255°
2026-04-22 20:24 23.74295 -105.69577 38077 ft 414 kts 255°
2026-04-22 20:25 23.72294 -105.75466 38079 ft 414 kts 255°
2026-04-22 20:25 23.70294 -105.81356 38070 ft 414 kts 255°
2026-04-22 20:26 23.68285 -105.87241 38058 ft 414 kts 255°
2026-04-22 20:26 23.66273 -105.93121 38057 ft 414 kts 255°
2026-04-22 20:27 23.64256 -105.99020 38063 ft 415 kts 255°
2026-04-22 20:27 23.62238 -106.04914 38041 ft 415 kts 255°
2026-04-22 20:28 23.60217 -106.10807 38035 ft 415 kts 255°
2026-04-22 20:28 23.58193 -106.16697 38038 ft 415 kts 255°
2026-04-22 20:29 23.56169 -106.22593 38036 ft 415 kts 255°
2026-04-22 20:29 23.54141 -106.28492 38032 ft 416 kts 255°
2026-04-22 20:30 23.52443 -106.33400 38034 ft 416 kts 255°
2026-04-22 20:30 23.50406 -106.39297 38008 ft 416 kts 255°
2026-04-22 20:31 23.48035 -106.46159 38011 ft 417 kts 255°
2026-04-22 20:31 23.46318 -106.51118 38015 ft 418 kts 255°
2026-04-22 20:32 23.44261 -106.57039 38021 ft 418 kts 254°
2026-04-22 20:32 23.42197 -106.62967 38027 ft 419 kts 254°
2026-04-22 20:33 23.40146 -106.68861 38032 ft 419 kts 254°
2026-04-22 20:33 23.38082 -106.74799 38034 ft 420 kts 254°
2026-04-22 20:34 23.36014 -106.80744 38034 ft 420 kts 254°
2026-04-22 20:34 23.33943 -106.86687 38035 ft 420 kts 254°
2026-04-22 20:35 23.31871 -106.92628 38034 ft 420 kts 254°
2026-04-22 20:35 23.29791 -106.98564 38035 ft 420 kts 254°
2026-04-22 20:36 23.27699 -107.04506 38037 ft 421 kts 254°
2026-04-22 20:36 23.25605 -107.10452 38031 ft 420 kts 254°
2026-04-22 20:37 23.23520 -107.16390 38034 ft 420 kts 254°
2026-04-22 20:37 23.21430 -107.22331 38033 ft 420 kts 254°
2026-04-22 20:38 23.19336 -107.28265 38031 ft 420 kts 254°
2026-04-22 20:38 23.17244 -107.34189 38032 ft 420 kts 254°
2026-04-22 20:39 23.15165 -107.40082 38022 ft 420 kts 253°
2026-04-22 20:39 23.13072 -107.46001 38023 ft 420 kts 253°
2026-04-22 20:40 23.10973 -107.51924 38031 ft 420 kts 253°
2026-04-22 20:40 23.08870 -107.57838 38037 ft 420 kts 253°
2026-04-22 20:41 23.06766 -107.63758 38036 ft 420 kts 253°
2026-04-22 20:41 23.04656 -107.69678 37951 ft 422 kts 253°
2026-04-22 20:41 23.03597 -107.72648 37675 ft 422 kts 253°
2026-04-22 20:42 23.02541 -107.75618 37405 ft 422 kts 253°
2026-04-22 20:42 23.01483 -107.78581 36959 ft 419 kts 253°
2026-04-22 20:42 23.00423 -107.81539 36295 ft 420 kts 253°
2026-04-22 20:42 22.99377 -107.84461 35637 ft 422 kts 253°
2026-04-22 20:43 22.98314 -107.87442 34913 ft 425 kts 253°
2026-04-22 20:43 22.97241 -107.90446 34163 ft 428 kts 253°
2026-04-22 20:43 22.96158 -107.93477 33260 ft 433 kts 252°
2026-04-22 20:43 22.95067 -107.96529 32394 ft 436 kts 252°
2026-04-22 20:44 22.93963 -107.99607 31518 ft 439 kts 252°
2026-04-22 20:44 22.92851 -108.02700 30618 ft 442 kts 252°
2026-04-22 20:44 22.91729 -108.05828 29527 ft 448 kts 252°
2026-04-22 20:44 22.90592 -108.08987 28569 ft 449 kts 251°
2026-04-22 20:45 22.89463 -108.12111 28037 ft 441 kts 251°
2026-04-22 20:45 22.88354 -108.15185 27390 ft 436 kts 251°
2026-04-22 20:45 22.87255 -108.18232 26754 ft 432 kts 251°
2026-04-22 20:45 22.86167 -108.21254 26121 ft 428 kts 251°
2026-04-22 20:46 22.84016 -108.27225 24861 ft 422 kts 251°
2026-04-22 20:46 22.82953 -108.30184 24240 ft 420 kts 250°
2026-04-22 20:46 22.81895 -108.33127 23622 ft 418 kts 250°
2026-04-22 20:47 22.80853 -108.36015 22941 ft 415 kts 250°
2026-04-22 20:47 22.79804 -108.38906 22351 ft 410 kts 250°
2026-04-22 20:47 22.78762 -108.41771 21760 ft 406 kts 250°
2026-04-22 20:47 22.77732 -108.44605 21200 ft 402 kts 250°
2026-04-22 20:48 22.76716 -108.47408 20652 ft 398 kts 250°
2026-04-22 20:48 22.75817 -108.50226 20175 ft 393 kts 258°
2026-04-22 20:48 22.75466 -108.53129 19992 ft 389 kts 269°
2026-04-22 20:48 22.75635 -108.56047 19262 ft 393 kts 279°
2026-04-22 20:49 22.76411 -108.58910 18474 ft 398 kts 289°
2026-04-22 20:49 22.77395 -108.61706 17797 ft 396 kts 289°
2026-04-22 20:49 22.78360 -108.64489 17201 ft 393 kts 289°
2026-04-22 20:49 22.79306 -108.67253 16609 ft 390 kts 289°
2026-04-22 20:50 22.80240 -108.70000 16004 ft 387 kts 289°
2026-04-22 20:50 22.81166 -108.72734 15389 ft 386 kts 289°
2026-04-22 20:50 22.82088 -108.75454 14776 ft 384 kts 289°
2026-04-22 20:50 22.83007 -108.78166 14147 ft 382 kts 289°
2026-04-22 20:51 22.83922 -108.80865 13476 ft 381 kts 289°
2026-04-22 20:51 22.84832 -108.83551 12824 ft 377 kts 289°
2026-04-22 20:51 22.85733 -108.86200 12423 ft 368 kts 289°
2026-04-22 20:51 22.86604 -108.88760 12074 ft 357 kts 288°
2026-04-22 20:52 22.87442 -108.91224 11929 ft 352 kts 288°
2026-04-22 20:52 22.88299 -108.93749 11958 ft 353 kts 288°
2026-04-22 20:52 22.89135 -108.96208 11942 ft 348 kts 288°
2026-04-22 20:52 22.89948 -108.98604 11958 ft 329 kts 288°
2026-04-22 20:53 22.90719 -109.00873 11959 ft 312 kts 288°
2026-04-22 20:53 22.91451 -109.03033 11894 ft 299 kts 288°
2026-04-22 20:53 22.92162 -109.05138 11578 ft 296 kts 288°
2026-04-22 20:53 22.92868 -109.07227 11244 ft 294 kts 288°
2026-04-22 20:54 22.93569 -109.09307 10910 ft 292 kts 287°
2026-04-22 20:54 22.94265 -109.11374 10582 ft 291 kts 287°
2026-04-22 20:54 22.94956 -109.13426 10276 ft 288 kts 287°
2026-04-22 20:54 22.95642 -109.15464 10008 ft 284 kts 286°
2026-04-22 20:55 22.96313 -109.17455 9953 ft 280 kts 286°
2026-04-22 20:55 22.96982 -109.19444 9956 ft 281 kts 286°
2026-04-22 20:55 22.97651 -109.21432 9956 ft 281 kts 286°
2026-04-22 20:55 22.98322 -109.23428 9953 ft 281 kts 286°
2026-04-22 20:56 22.98990 -109.25416 9957 ft 281 kts 286°
2026-04-22 20:56 22.99661 -109.27409 9962 ft 281 kts 286°
2026-04-22 20:56 23.00473 -109.29342 9961 ft 285 kts 298°
2026-04-22 20:56 23.01744 -109.31022 9961 ft 290 kts 311°
2026-04-22 20:57 23.03196 -109.32543 9963 ft 290 kts 311°
2026-04-22 20:57 23.04630 -109.34049 9959 ft 290 kts 311°
2026-04-22 20:57 23.06079 -109.35573 9959 ft 290 kts 311°
2026-04-22 20:57 23.07528 -109.37098 9959 ft 290 kts 311°
2026-04-22 20:58 23.08980 -109.38625 9959 ft 290 kts 311°
2026-04-22 20:58 23.10430 -109.40155 9958 ft 290 kts 311°
2026-04-22 20:58 23.11877 -109.41686 9962 ft 290 kts 311°
2026-04-22 20:58 23.13323 -109.43213 9962 ft 290 kts 311°
2026-04-22 20:59 23.14775 -109.44744 9966 ft 290 kts 311°
2026-04-22 20:59 23.16225 -109.46273 9961 ft 290 kts 311°
2026-04-22 20:59 23.17674 -109.47803 9690 ft 291 kts 310°
2026-04-22 20:59 23.19131 -109.49342 9262 ft 291 kts 311°
2026-04-22 21:00 23.20576 -109.50866 8670 ft 288 kts 311°
2026-04-22 21:00 23.22017 -109.52387 8221 ft 289 kts 311°
2026-04-22 21:00 23.23453 -109.53901 7739 ft 285 kts 312°
2026-04-22 21:00 23.24853 -109.55376 7140 ft 283 kts 313°
2026-04-22 21:01 23.26263 -109.56863 6534 ft 282 kts 313°
2026-04-22 21:01 23.27664 -109.58344 5932 ft 279 kts 313°
2026-04-22 21:01 23.29052 -109.59812 5361 ft 277 kts 313°
2026-04-22 21:01 23.30425 -109.61261 4809 ft 273 kts 314°
2026-04-22 21:02 23.31781 -109.62692 4242 ft 269 kts 315°
2026-04-22 21:02 23.32950 -109.64234 4078 ft 259 kts 299°
2026-04-22 21:02 23.33611 -109.65971 3971 ft 239 kts 282°
2026-04-22 21:02 23.33787 -109.67674 3954 ft 214 kts 267°
2026-04-22 21:03 23.33653 -109.69234 3790 ft 205 kts 263°
2026-04-22 21:03 23.33502 -109.70780 3385 ft 206 kts 263°
2026-04-22 21:03 23.33297 -109.72301 3072 ft 198 kts 250°
2026-04-22 21:03 23.32530 -109.73452 2851 ft 182 kts 212°
2026-04-22 21:04 23.31416 -109.73882 2703 ft 164 kts 180°
2026-04-22 21:04 23.30308 -109.73784 2584 ft 157 kts 171°
2026-04-22 21:04 23.29251 -109.73665 2468 ft 153 kts 173°
2026-04-22 21:04 23.28201 -109.73550 2355 ft 150 kts 171°
2026-04-22 21:05 23.27174 -109.73436 2264 ft 146 kts 172°
2026-04-22 21:05 23.26164 -109.73323 2128 ft 145 kts 171°
2026-04-22 21:05 23.25150 -109.73209 2009 ft 145 kts 173°
2026-04-22 21:05 23.24142 -109.73096 1850 ft 146 kts 172°
2026-04-22 21:06 23.23151 -109.72984 1658 ft 143 kts 170°
2026-04-22 21:06 23.22162 -109.72873 1461 ft 142 kts 172°
2026-04-22 21:06 23.21172 -109.72760 1293 ft 141 kts 169°
2026-04-22 21:06 23.20215 -109.72654 1122 ft 136 kts 171°
2026-04-22 21:07 23.19274 -109.72553 974 ft 136 kts 170°
2026-04-22 21:07 23.18327 -109.72425 827 ft 137 kts 171°
2026-04-22 21:07 23.17379 -109.72336 599 ft 138 kts 171°
2026-04-22 21:07 23.16438 -109.72216 428 ft 136 kts 171°
2026-04-22 21:08 23.15541 -109.72112 365 ft 116 kts 174°
2026-04-22 21:08 23.14905 -109.72042 352 ft 70 kts 174°
2026-04-22 21:08 23.14631 -109.71976 339 ft 28 kts 138°
2026-04-22 21:08 23.14490 -109.71862 328 ft 12 kts 144°
2026-04-22 21:09 23.14477 -109.71850 327 ft 0 kts 137°
2026-04-22 21:09 23.14472 -109.71845 324 ft 0 kts 137°
2026-04-22 21:10 23.14467 -109.71840 324 ft 4 kts 137°
2026-04-22 21:10 23.14453 -109.71826 326 ft 0 kts 137°
2026-04-22 21:10 23.14463 -109.71797 323 ft 11 kts 35°
2026-04-22 21:10 23.14569 -109.71798 330 ft 20 kts 352°
2026-04-22 21:11 23.14732 -109.71816 335 ft 26 kts 354°
2026-04-22 21:11 23.14925 -109.71838 354 ft 28 kts 355°
2026-04-22 21:11 23.15119 -109.71858 349 ft 28 kts 352°
2026-04-22 21:11 23.15324 -109.71883 362 ft 31 kts 354°
2026-04-22 21:12 23.15451 -109.71897 364 ft 26 kts 354°
2026-04-22 21:12 23.15608 -109.71870 363 ft 12 kts 97°
2026-04-22 21:12 23.15637 -109.71811 364 ft 4 kts 84°
2026-04-22 21:12 23.15641 -109.71770 369 ft 6 kts 83°
2026-04-22 21:13 23.15642 -109.71766 369 ft 0 kts 83°
2026-04-22 21:19 23.15641 -109.71766 369 ft 0 kts 83°
2026-04-22 21:19 23.15642 -109.71766 369 ft 0 kts 83°
2026-04-22 21:19 23.15641 -109.71766 369 ft 0 kts 83°